Tucson Davis Monthan, AZ

8:42 AM MST on September 22, 2017 (GMT -0700)
Davis-Monthan Air Force Base

Weather History for KDMA - May, 2013

Change the Weather History Date:

Sunday, May 5, 2013

  Actual Average Record
Temperature  
Mean Temperature 78 °F -  
Max Temperature 87 °F 85 °F 101 °F (1989)
Min Temperature 62 °F 55 °F 38 °F (1950)
Cooling Degree Days 13    
Growing Degree Days 28 (Base 50)    
Moisture  
Dew Point 27 °F    
Average Humidity 15    
Maximum Humidity 54    
Minimum Humidity 8    
Precipitation  
Precipitation 0.00 in - - ()
Sea Level Pressure  
Sea Level Pressure 29.83 in    
Wind  
Wind Speed 12 mph (SSW)    
Max Wind Speed 23 mph    
Max Gust Speed 29 mph    
Visibility 10 miles    
Events Rain    
Averages and records for this station are not official NWS values.
T = Trace of Precipitation, MM = Missing Value Source: NWS Daily Summary

Daily Weather History Graph

Daily Weather History Graph

Search for Another Location

Airport or City:

Trip Planner

Search our weather history database for the weather conditions in past years. The results will help you decide how hot, cold, wet, or windy it might be!

Date:

Astronomy

May. 05, 2013 Rise Set
Actual Time 5:33 AM MST 7:07 PM MST
Civil Twilight 5:07 AM MST 7:33 PM MST
Nautical Twilight 4:35 AM MST 8:05 PM MST
Astronomical Twilight 4:02 AM MST 8:38 PM MST
Moon 2:51 AM MST (5/5) 3:23 PM MST (5/5)
Length of Visible Light 14h 26m
Length of Day
13h 34m
Waning Crescent, 17% of the Moon is Illuminated
May 5
Waning Crescent
May 9
New
May 17
First Quarter
May 24
Full
May 31
Last Quarter

Hourly Weather History & Observations

Time (MST) Temp. Dew Point Humidity Pressure Visibility Wind Dir Wind Speed Gust Speed Precip Events Conditions
12:58 AM 74.7 °F 30.0 °F 19% 29.76 in 10.0 mi SSW 11.5 mph - N/A   Scattered Clouds
1:58 AM 73.4 °F 29.1 °F 19% 29.76 in 10.0 mi SSW 10.4 mph - N/A   Overcast
2:58 AM 72.5 °F 27.1 °F 19% 29.76 in 10.0 mi SSW 10.4 mph - N/A   Overcast
3:58 AM 72.0 °F 18.9 °F 13% 29.78 in 10.0 mi SW 10.4 mph - N/A   Mostly Cloudy
4:58 AM 70.7 °F 22.8 °F 16% 29.79 in 10.0 mi SW 6.9 mph - N/A   Overcast
5:58 AM 69.8 °F 23.0 °F 17% 29.81 in 10.0 mi SE 6.9 mph - N/A   Overcast
6:58 AM 72.1 °F 25.7 °F 18% 29.84 in 10.0 mi ESE 6.9 mph - N/A   Scattered Clouds
7:58 AM 74.5 °F 25.9 °F 16% 29.85 in 10.0 mi SE 5.8 mph - N/A   Clear
8:58 AM 77.0 °F 28.0 °F 17% 29.85 in 10.0 mi Variable 3.5 mph - N/A   Clear
9:58 AM 80.1 °F 27.7 °F 15% 29.83 in 10.0 mi East 4.6 mph - N/A   Clear
10:58 AM 80.8 °F 26.8 °F 14% 29.83 in 10.0 mi SW 15.0 mph - N/A   Clear
11:00 AM 80.6 °F 26.6 °F 14% 29.95 in 10.0 mi WSW 12.7 mph - N/A   Clear
11:58 AM 83.7 °F 23.0 °F 11% 29.81 in 10.0 mi WSW 10.4 mph 20.7 mph N/A   Clear
12:06 PM 82.4 °F 23.0 °F 11% 29.92 in 10.0 mi West 17.3 mph 24.2 mph N/A   Clear
12:17 PM 86.0 °F 21.2 °F 9% 29.92 in 10.0 mi SW 11.5 mph 24.2 mph N/A   Scattered Clouds
12:58 PM 85.8 °F 18.5 °F 8% 29.78 in 10.0 mi WSW 11.5 mph 17.3 mph N/A   Scattered Clouds
1:43 PM 86.0 °F 19.4 °F 9% 29.89 in 10.0 mi SSW 18.4 mph 25.3 mph N/A   Mostly Cloudy
1:58 PM 86.7 °F 19.2 °F 8% 29.75 in 10.0 mi WSW 17.3 mph 24.2 mph N/A   Scattered Clouds
2:07 PM 87.8 °F 19.4 °F 8% 29.88 in 10.0 mi SSW 16.1 mph 25.3 mph N/A   Partly Cloudy
2:08 PM 87.8 °F 19.4 °F 8% 29.88 in 10.0 mi SSW 15.0 mph 25.3 mph N/A   Partly Cloudy
2:09 PM 87.8 °F 19.4 °F 8% 29.88 in 10.0 mi SSW 13.8 mph 25.3 mph N/A   Partly Cloudy
2:10 PM 86.0 °F 21.2 °F 9% 29.88 in 10.0 mi SW 12.7 mph 25.3 mph N/A   Scattered Clouds
3:53 PM 86.0 °F 28.4 °F 12% 29.85 in 10.0 mi South 16.1 mph 24.2 mph N/A   Partly Cloudy
3:58 PM 85.8 °F 28.2 °F 12% 29.72 in 10.0 mi SSW 16.1 mph 24.2 mph N/A   Partly Cloudy
4:14 PM 86.0 °F 28.4 °F 12% 29.84 in 10.0 mi South 18.4 mph 27.6 mph N/A   Partly Cloudy
4:41 PM 86.0 °F 28.4 °F 12% 29.84 in 10.0 mi South 17.3 mph 21.9 mph N/A   Clear
4:58 PM 85.3 °F 31.1 °F 14% 29.71 in 10.0 mi South 23.0 mph 28.8 mph N/A   Clear
5:05 PM 86.0 °F 30.2 °F 13% 29.83 in 10.0 mi SSW 15.0 mph 28.8 mph N/A   Clear
5:19 PM 86.0 °F 32.0 °F 14% 29.83 in 10.0 mi South 15.0 mph - N/A   Clear
5:58 PM 84.6 °F 28.8 °F 13% 29.70 in 10.0 mi SSW 17.3 mph 25.3 mph N/A   Clear
6:58 PM 81.5 °F 28.4 °F 14% 29.71 in 10.0 mi SSW 12.7 mph 21.9 mph N/A   Clear
8:58 PM 76.6 °F 36.7 °F 24% 29.78 in 10.0 mi WSW 12.7 mph - N/A   Clear
10:41 PM 71.6 °F 37.4 °F 29% 29.95 in 10.0 mi WSW 16.1 mph 23.0 mph N/A   Clear
11:15 PM 69.8 °F 35.6 °F 28% 29.97 in 10.0 mi SSW 13.8 mph - N/A Rain Light Rain
11:58 PM 62.1 °F 45.3 °F 54% 29.88 in 10.0 mi South 9.2 mph - 0.00 in Rain Light Rain